Regional Weather Roundup
Issued by NWS Northern Indiana

Home | Current Version | Previous Version | Graphics & Text | Print | Product List | Glossary On
Versions: 1 2 3 4 5 6 7 8 9 10 11 12 13 14 15 16 17 18 19 20 21 22 23 24 25 26 27 28 29 30 31 32 33 34 35 36 37 38 39 40 41 42 43 44 45 46 47 48 49 50
000
ASUS43 KIWX 190510
RWRIWX

KIWX WEATHER ROUNDUP
NATIONAL WEATHER SERVICE NORTHERN INDIANA
100 AM EDT SAT APR 19 2014

NOTE: "FAIR" INDICATES FEW OR NO CLOUDS BELOW 12,000 FEET WITH NO
SIGNIFICANT WEATHER AND/OR OBSTRUCTIONS TO VISIBILITY.

* THESE STATIONS ARE NOT UNDER NWS QUALITY CONTROL. THEY ALSO MAY NOT
  REPORT WEATHER SUCH AS PRECIPITATION OR FOG.

INZ001>027-190600-
NORTHERN INDIANA

CITY           SKY/WX    TMP DP  RH WIND       PRES   REMARKS
GARY*          CLEAR     39  29  68 N8        30.37S
VALPARAISO     CLEAR     34  23  64 N5        30.35S WCI  30
MICHIGAN CITY* CLEAR     34  27  75 CALM      30.36S
LAPORTE*       CLEAR     35  24  66 N8        30.35S WCI  28
SOUTH BEND     CLEAR     35  23  61 N6        30.35S WCI  30
GOSHEN         CLEAR     37  27  67 N7        30.33R
MONTICELLO*    CLEAR     37  31  79 N5        30.35R
LOGANSPORT*    CLEAR     39  32  75 N9        30.34R
ROCHESTER*     CLEAR     41  28  60 N3        30.34R
WARSAW*        CLEAR     37  30  75 CALM      30.33R
ANGOLA*        CLEAR     43  32  65 CALM      30.32R
FORT WAYNE     CLEAR     41  34  76 N8        30.32R
HUNTINGTON*    FAIR      43  34  71 N7        30.32R
PERU/GRISSOM   CLEAR     43  32  64 N9        30.31S
MARION*        CLEAR     44  35  71 N6        30.31S

$$
INZ028>050-190600-
CENTRAL INDIANA

CITY           SKY/WX    TMP DP  RH WIND       PRES   REMARKS
LAFAYETTE      CLEAR     42  31  64 N8        30.33S
KOKOMO*        CLEAR     43  30  61 N8        30.32S
MUNCIE*        CLEAR     45  36  70 N7        30.29S
INDIANAPOLIS   PTCLDY    50  36  58 N12       30.28R

$$
MIZ043>046-050>051-056>058-064>065-071>073-077>080-190600-
SOUTHWEST LOWER MICHIGAN

CITY           SKY/WX    TMP DP  RH WIND       PRES   REMARKS
BATTLE CREEK   CLEAR     42  30  62 NE14      30.35R
BENTON HARBOR  CLEAR     30  26  85 CALM      30.35F
COLDWATER*     CLEAR     40  30  68 N3        30.33R
HILLSDALE*     CLEAR     45  31  59 N5        30.32R
HOLLAND        CLEAR     41  27  57 NE7       30.38R
GRAND RAPIDS   CLEAR     38  25  59 NE14      30.38R
KALAMAZOO      CLEAR     38  28  67 N5        30.34S
STURGIS*       CLEAR     37  30  75 CALM      30.33S
THREE RIVERS*  FAIR      38  28  66 N3        30.34S

$$
OHZ001>008-015>018-024>025-190600-
NORTHWEST OHIO

CITY           SKY/WX    TMP DP  RH WIND       PRES   REMARKS
WAUSEON*       FAIR      45  43  93 N5        30.32R
DEFIANCE       CLEAR     47  34  60 N5        30.32R
FINDLAY        CLEAR     47  41  80 NE10      30.28S
TOLEDO EXPRESS CLEAR     44  40  85 NE5       30.32R
TOLEDO METCALF PTCLDY    44  38  79 NE13G21   30.34R
LIMA           PTCLDY    49  41  74 N6        30.28R

$$
&&



USA.gov is the U.S. government's official web portal to all federal, state and local government web resources and services.